OneWeb SL0644

operational
NORAD ID: 55808 Int'l Des: 2023-029 Owner: ONEWEBN Country: UK Constellation: oneweb
LEOCIRCULARPOLARONEWEB_TYPE

关于 OneWeb SL0644

正在加载描述...

实时位置

正在加载3D地球...

即将过境

高度历史

Altitude vs Time

uPlot chart will show altitude changes over time

两行轨道根数

1 55808U 23029N 25304.12680260 .00000049 00000-0 89504-4 0 9994
2 55808 87.9237 350.5734 0002377 103.8549 256.2848 13.19725553128692
Epoch: Oct 31, 2025 • Age: 15 hours

当前状态

高度 1196.0 km
速度 7.26 km/s
星下点 69.00°N, 147.64°W
发射日期 Mar 9, 2023
运行时间 2.6 years
类型 internet

技术详情

分类 Payload
质量 148.00 kg
干质量 140.00 kg
总质量 148.00 kg
长度 1.30 m
直径 1.00 m
跨度 5.00 m
形状 Trapezoid+2 pan
制造商 ONEWUS
平台类型 ARROW
阶段状态 In Orbit
所有者/国家 ONEWEBN/UK

大型星座

Loading constellations...